Home > Weather > Alexandria > Past weeks

Flag for USA Weather for the Past 2 Weeks in Alexandria, Virginia, USA

Now
54 °F

Rain. Fog.


Feels Like: 52 °F
Forecast: 52 / 65 °F
Wind: 8 mph from Southeast

Location: Reagan National Airport

Current Time: May 1, 2016 at 12:08:35 PM

Latest Report: May 1, 2016 at 10:52 AM


Visibility: 4 mi

Pressure: 30.11 "Hg

Humidity: 93%

Dew Point: 52 °F

Location of AlexandriaLocation

Historic Weather in Alexandria — Graph

°F

Alexandria Temperature Yesterday

Maximum temperature yesterday: 58 °F (at 2:52 PM)
Minimum temperature yesterday: 51 °F (at 7:02 AM)
Average temperature yesterday: 54 °F

High & Low Weather Summary for the Past Weeks

 TemperatureHumidityPressure
High85 °F (Apr 26, 2:52 PM)97% (Apr 28, 4:59 PM)30.49 "Hg (Apr 28, 4:59 PM)
Low47 °F (Apr 24, 5:52 AM)18% (Apr 20, 4:52 PM)29.68 "Hg (Apr 26, 5:52 PM)
Average62 °F61%30.06 "Hg
* Reported Apr 16 10:52 AM — May 1 10:52 AM, Alexandria, Weather by CustomWeather, © 2016

Note: Actual official high and low records may vary slightly from our data, if they occured in-between our weather recording intervals... More about our weather records

Advertising

Alexandria Weather History for the Previous 24 Hours

Scroll right to see more
 ConditionsComfort  
Time TempWeatherWind HumidityBarometerVisibility
10:52 AM
Sun, May 1
54 °FRain. Fog.8 mph93%30.11 "Hg4 mi
9:52 AM54 °FLight rain. Low clouds.8 mph93%30.12 "Hg10 mi
8:52 AM53 °FLight rain. Mostly cloudy.9 mph93%30.13 "Hg8 mi
7:52 AM53 °FLight rain. Fog.9 mph93%30.13 "Hg6 mi
6:52 AM53 °FLight rain. Mostly cloudy.7 mph93%30.12 "Hg10 mi
6:01 AM52 °FLight rain. Fog.7 mph93%30.13 "Hg6 mi
4:52 AM52 °FLight rain. Mostly cloudy.8 mph93%30.13 "Hg7 mi
3:52 AM52 °FLight rain. Overcast.8 mph89%30.15 "Hg10 mi
2:52 AM52 °FLight rain. Low clouds.7 mph89%30.16 "Hg10 mi
1:52 AM54 °FLight rain. Mostly cloudy.10 mph90%30.17 "Hg10 mi
12:59 AM54 °FLight rain. Mostly cloudy.8 mph86%30.20 "Hg10 mi
11:52 PM
Sat, Apr 30
54 °FLight rain. Overcast.5 mph90%30.19 "Hg10 mi
10:52 PM54 °FOvercast.7 mph86%30.21 "Hg10 mi
9:52 PM55 °FLight rain. Overcast.5 mph83%30.22 "Hg10 mi
8:52 PM55 °FLight rain. Overcast.6 mph80%30.21 "Hg10 mi
7:52 PM56 °FOvercast.7 mph75%30.20 "Hg10 mi
6:52 PM57 °FMostly cloudy.7 mph74%30.20 "Hg10 mi
5:52 PM57 °FOvercast.5 mph72%30.22 "Hg10 mi
4:52 PM57 °FOvercast.7 mph74%30.20 "Hg10 mi
3:52 PM57 °FMostly cloudy.7 mph72%30.20 "Hg10 mi
2:52 PM58 °FMostly cloudy.No wind70%30.20 "Hg10 mi
1:52 PM56 °FOvercast.No wind72%30.22 "Hg10 mi
12:52 PM55 °FOvercast.No wind74%30.22 "Hg10 mi
Weather by CustomWeather, © 2016

See weather overviewHow to use our weather pages